Find Starlink 34945

NORAD ID: 65185 Int'l Des: 2025-175 Owner: SPXS Country: US Constellation: starlink operational
LEOCIRCULARRETROGRADESSO

Live Position

Loading 3D Globe...

About Starlink 34945

Description loading...

Upcoming Passes

Passes for default location (London). Set your location on the main map for personalized predictions.

Altitude History

Loading altitude history...

Two-Line Element Set

1 65185U 25175M 26103.60378260 .00008479 00000-0 59065-3 0 9995
2 65185 97.6043 337.0637 0002125 78.8389 281.3076 15.05680665 37894
Epoch: Apr 13, 2026 • Age: 18 hours

Current Status

Altitude 551.9 km
Velocity 7.59 km/s
Sub-Earth Point 8.22°N, 175.55°W
Launch Date Aug 14, 2025
Age 0.6 years
Type internet

Technical Details

Classification Payload
Mass 575.00 kg
Dry Mass 530.00 kg
Total Mass 575.00 kg
Length 0.30 m
Diameter 4.10 m
Span 29.00 m
Shape Box + pan
Manufacturer SPXS
Bus Type Starlink V2MO
Phase Status In Orbit
Owner/State SPXS/US

Most Searched